1513080000.31,57714,6.44,72598.5,-1.47,-7.15,-7.91,0,*5E
1513080001.54,57715,6.44,72598.5,-1.45,-7.35,-7.87,0,*58
1513080002.79,57716,6.44,72586.0,-1.45,-7.35,-7.91,0,*5C
1513080004.01,57717,6.44,72588.3,-1.47,-7.53,-8.25,0,*5F
1513080005.2,57718,6.44,72580.0,-1.45,-7.53,-8.41,0,*50
1513080006.43,57719,6.44,72574.5,-1.45,-7.61,-8.45,0,*54
1513080007.65,57720,6.44,72566.0,-1.45,-7.65,-8.71,0,*5D
1513080008.85,57721,6.44,72580.0,-1.45,-7.87,-8.97,0,*58
1513080010.08,57722,6.44,72478.0,-1.45,-8.17,-9.37,0,*56
1513080011.3,57723,6.44,72506.5,-1.45,-8.33,-9.49,0,*58
1513080012.53,57724,6.44,72554.3,-1.45,-8.55,-9.61,0,*55
1513080013.76,57725,6.44,72534.8,-1.47,-8.85,-9.89,0,*5D
1513080014.99,57726,6.44,72530.0,-1.47,-8.89,-9.97,0,*5D
1513080016.23,57727,6.44,72636.0,-1.47,-8.97,-10.01,0,*64
1513080017.49,57728,6.44,72616.5,-1.47,-8.85,-9.83,0,*5A
1513080018.73,57729,6.5,72578.3,-1.47,-8.97,-10.01,0,*6A
1513080019.97,57730,6.44,72496.3,-1.47,-9.05,-10.15,0,*6D
1513080021.18,57731,6.44,72438.0,-1.45,-9.23,-10.35,0,*68
1513080022.47,57732,6.44,72436.5,-1.47,-9.41,-10.63,0,*6E
1513080023.71,57733,6.5,72478.3,-1.47,-9.31,-10.27,0,*68
1513080024.94,57734,6.44,72468.8,-1.47,-9.19,-10.09,0,*69
1513080026.17,57735,6.44,72508.0,-1.47,-9.05,-10.09,0,*65
1513080027.42,57736,6.44,72510.8,-1.47,-9.01,-10.15,0,*6F
1513080028.71,57737,6.44,72564.3,-1.49,-9.15,-10.41,0,*64
1513080029.97,57738,6.44,72558.5,-1.49,-9.27,-10.67,0,*6E
1513080031.22,57739,6.44,72556.3,-1.47,-9.41,-10.85,0,*6D
1513080032.47,57740,6.44,72548.8,-1.49,-9.53,-10.93,0,*69
1513080033.71,57741,6.44,72556.5,-1.49,-9.53,-10.85,0,*6F
1513080034.95,57742,6.44,72584.5,-1.49,-9.57,-10.85,0,*68
1513080036.23,57743,6.44,72588.5,-1.49,-9.41,-10.79,0,*6D
1513080037.45,57744,6.44,72616.0,-1.49,-9.79,-11.11,0,*6E
1513080038.67,57745,6.44,72588.8,-1.51,-9.89,-11.29,0,*62
1513080039.87,57746,6.44,72568.3,-1.51,-10.05,-11.41,0,*53
1513080041.11,57747,6.44,72570.3,-1.49,-9.83,-11.19,0,*60
1513080042.36,57748,6.44,72564.0,-1.53,-9.83,-11.01,0,*6D
1513080043.58,57749,6.44,72556.0,-1.51,-9.83,-11.01,0,*6E
1513080044.84,57750,6.44,72570.0,-1.53,-9.83,-10.97,0,*6A
1513080046.06,57751,6.44,72610.0,-1.51,-9.83,-11.01,0,*67
1513080047.28,57752,6.44,72604.3,-1.51,-9.61,-10.97,0,*66
1513080048.49,57753,6.44,72602.8,-1.51,-9.71,-10.97,0,*66
1513080049.74,57754,6.44,72558.0,-1.53,-9.83,-11.15,0,*65
1513080050.94,57755,6.44,72548.3,-1.51,-9.93,-11.15,0,*67
1513080052.16,57756,6.44,72642.0,-1.53,-9.93,-11.23,0,*63
1513080053.39,57757,6.44,72552.0,-1.53,-9.75,-11.11,0,*6B
1513080054.63,57758,6.44,72452.3,-1.53,-9.83,-11.11,0,*6D
1513080055.83,57759,6.5,72376.3,-1.51,-9.93,-11.23,0,*6E
1513080057.08,57760,6.44,72382.3,-1.53,-10.05,-11.29,0,*5B
1513080058.3,57761,6.44,72412.0,-1.51,-10.05,-11.37,0,*57
1513080059.55,57762,6.44,72438.3,-1.53,-10.05,-11.37,0,*56
1513080060.8,57763,6.44,72458.8,-1.53,-10.05,-11.29,0,*58
1513080062.05,57764,6.44,72466.5,-1.53,-10.05,-11.37,0,*50
1513080063.29,57765,6.44,72488.0,-1.53,-10.05,-11.37,0,*51
1513080064.55,57766,6.44,72544.0,-1.53,-10.05,-11.29,0,*5D
1513080065.77,57767,6.44,72544.5,-1.51,-10.05,-11.29,0,*5E
1513080066.99,57768,6.44,72538.8,-1.53,-9.93,-11.23,0,*6E
1513080068.21,57769,6.44,72544.5,-1.53,-9.89,-11.15,0,*61
1513080069.43,57770,6.44,72548.8,-1.53,-9.89,-11.11,0,*6D
1513080070.66,57771,6.44,72572.5,-1.53,-10.01,-11.23,0,*55
1513080071.88,57772,6.44,72576.3,-1.53,-10.05,-11.23,0,*52
1513080073.11,57773,6.44,72590.5,-1.53,-10.05,-11.23,0,*53
1513080074.33,57774,6.44,72592.5,-1.53,-9.93,-11.01,0,*63
1513080075.55,57775,6.44,72590.8,-1.53,-9.93,-11.11,0,*63
1513080076.8,57776,6.44,72594.8,-1.53,-9.83,-11.01,0,*60
1513080078.03,57777,6.44,72598.8,-1.53,-9.75,-11.01,0,*68
1513080079.28,57778,6.44,72590.5,-1.53,-9.83,-11.01,0,*6E
1513080080.53,57779,6.44,72602.3,-1.53,-9.83,-11.01,0,*6F
1513080081.75,57780,6.44,72590.8,-1.53,-9.89,-11.23,0,*63
1513080082.97,57781,6.44,72592.5,-1.53,-9.93,-11.15,0,*6C
1513080084.19,57782,6.44,72606.3,-1.53,-10.05,-11.23,0,*5D
1513080085.39,57783,6.44,72578.8,-1.51,-9.93,-11.23,0,*69
1513080086.62,57784,6.44,72580.3,-1.53,-10.05,-11.41,0,*5F
1513080087.84,57785,6.44,72598.3,-1.51,-10.01,-11.29,0,*56
1513080089.06,57786,6.44,72582.5,-1.53,-9.89,-11.15,0,*60
1513080090.28,57787,6.44,72558.0,-1.53,-9.89,-11.11,0,*65
1513080091.5,57788,6.44,72582.0,-1.53,-9.89,-11.11,0,*6A
1513080092.69,57789,6.44,72574.0,-1.51,-9.89,-11.15,0,*6D
1513080093.91,57790,6.44,72546.0,-1.53,-9.93,-11.23,0,*69
1513080095.16,57791,6.44,72506.5,-1.53,-10.05,-11.37,0,*5A
1513080096.41,57792,6.44,72498.3,-1.53,-10.05,-11.37,0,*59
1513080097.64,57793,6.44,72520.5,-1.53,-10.05,-11.41,0,*59
1513080098.86,57794,6.44,72538.0,-1.55,-10.09,-11.37,0,*55
1513080100.08,57795,6.44,72536.0,-1.55,-10.05,-11.33,0,*5C
1513080101.29,57796,6.44,72532.5,-1.55,-10.09,-11.41,0,*56
1513080102.49,57797,6.44,72562.8,-1.55,-10.09,-11.41,0,*57
1513080103.74,57798,6.44,72584.0,-1.53,-10.05,-11.37,0,*53
1513080104.99,57799,6.44,72590.8,-1.53,-10.05,-11.29,0,*5D
1513080106.25,57800,6.44,72586.8,-1.53,-10.05,-11.29,0,*52
1513080107.47,57801,6.44,72574.8,-1.53,-10.05,-11.23,0,*59
1513080108.7,57802,6.44,72586.5,-1.53,-10.05,-11.23,0,*5A
1513080109.92,57803,6.44,72594.5,-1.53,-10.05,-11.23,0,*5B
1513080111.15,57804,6.44,72600.5,-1.53,-10.01,-11.15,0,*5D
1513080112.35,57805,6.44,72552.0,-1.55,-9.97,-11.15,0,*6D
1513080113.58,57806,6.44,72560.0,-1.55,-10.09,-11.29,0,*5E
1513080114.81,57807,6.44,72564.3,-1.55,-10.09,-11.29,0,*5F
1513080116.03,57808,6.44,72572.3,-1.55,-10.09,-11.29,0,*50
1513080117.26,57809,6.44,72596.3,-1.55,-10.09,-11.29,0,*51
1513080118.47,57810,6.44,72574.8,-1.59,-10.05,-11.19,0,*5A
1513080119.69,57811,6.44,72560.0,-1.53,-9.93,-11.01,0,*6F
1513080120.91,57812,6.5,72530.0,-1.53,-9.93,-11.11,0,*6D
1513080122.14,57813,6.44,72564.0,-1.53,-9.93,-11.15,0,*68
1513080123.36,57814,6.44,72574.3,-1.53,-10.05,-11.23,0,*5D
1513080124.59,57815,6.44,72582.0,-1.53,-10.01,-11.15,0,*5D
1513080125.79,57816,6.44,72592.5,-1.55,-9.97,-11.15,0,*6F
1513080126.99,57817,6.44,72584.5,-1.55,-9.93,-11.15,0,*6A
1513080128.19,57818,6.44,72582.8,-1.55,-10.05,-11.19,0,*5E
1513080129.41,57819,6.44,72574.3,-1.55,-10.09,-11.33,0,*5B
1513080130.67,57820,6.44,72566.0,-1.53,-10.15,-11.29,0,*51
1513080131.9,57821,6.44,72572.3,-1.53,-10.05,-11.23,0,*5B
1513080133.12,57822,6.44,72596.8,-1.53,-10.05,-11.23,0,*58
1513080134.34,57823,6.44,72604.5,-1.53,-9.93,-11.15,0,*6B
1513080135.57,57824,6.44,72576.0,-1.53,-10.01,-11.01,0,*5A
1513080136.8,57825,6.44,72578.3,-1.53,-10.01,-11.23,0,*5B
1513080138.03,57826,6.44,72584.0,-1.53,-10.01,-11.23,0,*58
1513080139.23,57827,6.44,72546.8,-1.55,-10.05,-11.19,0,*52
1513080140.43,57828,6.44,72556.0,-1.55,-10.09,-11.19,0,*51
1513080141.66,57829,6.5,72572.0,-1.55,-10.09,-11.29,0,*53
1513080142.88,57830,6.44,72594.3,-1.55,-10.09,-11.33,0,*50
1513080144.08,57831,6.44,72574.3,-1.55,-9.97,-11.15,0,*6A
1513080145.28,57832,6.44,72570.5,-1.55,-9.97,-11.15,0,*69
1513080146.51,57833,6.44,72574.5,-1.53,-10.05,-11.15,0,*5D
1513080147.73,57834,6.44,72556.8,-1.53,-10.01,-11.15,0,*5E
1513080148.96,57835,6.44,72566.0,-1.53,-10.01,-11.15,0,*5F
1513080150.19,57836,6.44,72584.3,-1.53,-10.05,-11.15,0,*58
1513080151.42,57837,6.44,72594.5,-1.53,-10.01,-11.23,0,*58
1513080152.65,57838,6.44,72608.5,-1.53,-10.01,-11.01,0,*57
1513080153.88,57839,6.44,72598.8,-1.53,-10.01,-11.11,0,*57
1513080155.08,57840,6.44,72570.3,-1.55,-9.93,-11.01,0,*6D
1513080156.3,57841,6.44,72578.3,-1.53,-9.93,-11.01,0,*6A
1513080157.52,57842,6.44,72590.5,-1.53,-9.93,-11.15,0,*6C
1513080158.74,57843,6.44,72600.8,-1.53,-9.89,-11.01,0,*63
1513080159.97,57844,6.44,72600.0,-1.53,-10.01,-11.01,0,*5C
1513080161.2,57845,6.44,72620.3,-1.53,-10.01,-11.01,0,*5D
1513080162.43,57846,6.44,72590.5,-1.53,-10.01,-11.11,0,*5F
1513080163.66,57847,6.44,72552.5,-1.53,-10.05,-11.23,0,*5B
1513080164.86,57848,6.5,72566.8,-1.51,-10.05,-11.23,0,*56
1513080166.08,57849,6.44,72614.5,-1.53,-10.05,-11.23,0,*55
1513080167.3,57850,6.44,72594.8,-1.53,-10.05,-11.23,0,*5D
1513080168.53,57851,6.44,72574.5,-1.53,-10.05,-11.23,0,*5C
1513080169.75,57852,6.44,72594.8,-1.53,-10.05,-11.15,0,*5A
1513080170.98,57853,6.44,72598.0,-1.53,-10.01,-11.11,0,*5B
1513080172.21,57854,6.44,72604.3,-1.53,-10.05,-11.11,0,*58
1513080173.44,57855,6.44,72596.8,-1.53,-10.15,-11.23,0,*59
1513080174.68,57856,6.44,72620.3,-1.53,-10.15,-11.23,0,*5A
1513080175.94,57857,6.44,72584.5,-1.53,-10.19,-11.29,0,*5D
1513080177.2,57858,6.44,72578.0,-1.53,-10.19,-11.37,0,*5D
1513080178.45,57859,6.44,72506.3,-1.53,-10.31,-11.37,0,*56
1513080179.71,57860,6.44,72504.3,-1.53,-10.27,-11.37,0,*5B
1513080180.94,57861,6.44,72514.0,-1.51,-10.19,-11.37,0,*55
1513080182.21,57862,6.44,72514.8,-1.53,-10.19,-11.29,0,*5B
1513080183.42,57863,6.44,72496.0,-1.55,-10.23,-11.41,0,*5B
1513080184.68,57864,6.44,72498.8,-1.53,-10.19,-11.29,0,*5D
1513080185.91,57865,6.44,72540.8,-1.55,-10.31,-11.33,0,*5B
1513080187.15,57866,6.44,72576.3,-1.55,-10.35,-11.55,0,*5C
1513080188.41,57867,6.5,72586.3,-1.53,-10.31,-11.51,0,*5B
1513080189.65,57868,6.44,72572.0,-1.55,-10.35,-11.55,0,*52
1513080190.88,57869,6.44,72588.3,-1.55,-10.45,-11.55,0,*54
1513080192.09,57870,6.44,72594.5,-1.55,-10.45,-11.45,0,*5D
1513080193.33,57871,6.44,72576.8,-1.55,-10.57,-11.67,0,*5F
1513080194.54,57872,6.44,72606.8,-1.59,-10.45,-11.45,0,*53
1513080195.77,57873,6.44,72580.5,-1.59,-10.45,-11.55,0,*53
1513080196.99,57874,6.44,72592.8,-1.55,-10.23,-11.41,0,*5D
1513080198.21,57875,6.44,72602.8,-1.55,-10.23,-11.33,0,*59
1513080199.45,57876,6.44,72618.3,-1.59,-10.23,-11.07,0,*51
1513080200.66,57877,6.44,72560.8,-1.55,-9.93,-11.01,0,*69
1513080201.89,57878,6.44,72426.3,-1.59,-9.97,-11.07,0,*68
1513080203.12,57879,6.44,72442.0,-1.55,-10.05,-11.07,0,*56
1513080204.32,57880,6.44,72436.0,-1.59,-10.05,-11.15,0,*5F
1513080205.52,57881,6.44,72430.0,-1.55,-10.09,-11.19,0,*52
1513080206.77,57882,6.44,72464.3,-1.59,-10.19,-11.29,0,*5F
1513080208.01,57883,6.44,72438.3,-1.59,-10.19,-11.07,0,*52
1513080209.21,57884,6.44,72440.0,-1.59,-9.89,-10.93,0,*68
1513080210.44,57885,6.44,72448.3,-1.55,-9.97,-11.07,0,*66
1513080211.67,57886,6.44,72490.5,-1.55,-9.97,-11.07,0,*65
1513080212.9,57887,6.44,72490.3,-1.59,-9.97,-11.07,0,*68
1513080214.11,57888,6.44,72548.8,-1.59,-9.79,-11.01,0,*61
1513080215.32,57889,6.44,72586.0,-1.59,-9.75,-11.01,0,*6C
1513080216.53,57890,6.44,72588.5,-1.59,-9.79,-11.01,0,*68
1513080217.73,57891,6.44,72588.5,-1.55,-9.75,-10.93,0,*63
1513080218.94,57892,6.44,72592.0,-1.59,-9.93,-11.01,0,*6E
1513080220.14,57893,6.44,72600.0,-1.59,-9.93,-11.01,0,*6F
1513080221.35,57894,6.44,72600.8,-1.59,-10.05,-11.15,0,*5A
1513080222.55,57895,6.44,72578.5,-1.59,-10.05,-11.19,0,*57
1513080223.75,57896,6.44,72580.5,-1.59,-10.05,-11.15,0,*58
1513080224.97,57897,6.44,72552.8,-1.59,-10.19,-11.19,0,*58
1513080226.21,57898,6.44,72570.8,-1.59,-10.23,-11.29,0,*5D
1513080227.42,57899,6.44,72560.8,-1.59,-10.19,-11.19,0,*56
1513080228.65,57900,6.44,72580.8,-1.55,-10.05,-11.07,0,*59
1513080229.85,57901,6.44,72568.5,-1.55,-10.09,-11.15,0,*57
1513080231.06,57902,6.44,72564.5,-1.55,-10.23,-11.19,0,*50
1513080232.3,57903,6.44,72568.0,-1.55,-10.23,-11.29,0,*52
1513080233.52,57904,6.5,72562.8,-1.59,-10.35,-11.41,0,*50
1513080234.75,57905,6.44,72544.5,-1.55,-10.31,-11.33,0,*5C
1513080235.99,57906,6.44,72556.0,-1.59,-10.45,-11.55,0,*50
1513080237.2,57907,6.44,72536.3,-1.59,-10.45,-11.41,0,*54
1513080238.43,57908,6.44,72544.8,-1.59,-10.45,-11.55,0,*5E
1513080239.64,57909,6.44,72530.8,-1.55,-10.45,-11.41,0,*56
1513080240.88,57910,6.44,72526.8,-1.59,-10.45,-11.33,0,*57
1513080242.11,57911,6.44,72520.5,-1.59,-10.35,-11.33,0,*51
1513080243.35,57912,6.44,72514.0,-1.59,-10.31,-11.29,0,*5D
1513080244.59,57913,6.44,72524.3,-1.59,-10.23,-11.29,0,*5F
1513080245.82,57914,6.44,72524.5,-1.59,-10.31,-11.33,0,*50
1513080247.04,57915,6.44,72508.8,-1.59,-10.35,-11.41,0,*50
1513080248.25,57916,6.44,72496.5,-1.59,-10.45,-11.45,0,*50
1513080249.46,57917,6.44,72490.8,-1.59,-10.49,-11.45,0,*5D
1513080250.67,57918,6.44,72532.5,-1.59,-10.45,-11.45,0,*5E
1513080251.89,57919,6.44,72536.5,-1.59,-10.35,-11.41,0,*5C
1513080253.15,57920,6.44,72562.3,-1.61,-10.53,-11.59,0,*54
1513080254.41,57921,6.44,72558.0,-1.61,-10.49,-11.51,0,*56
1513080255.66,57922,6.44,72584.3,-1.61,-10.53,-11.59,0,*56
1513080256.95,57923,6.44,72576.5,-1.61,-10.41,-11.37,0,*5C
1513080258.2,57924,6.44,72592.5,-1.63,-10.41,-11.33,0,*5D
1513080259.44,57925,6.44,72584.3,-1.61,-10.27,-11.23,0,*5F
1513080260.7,57926,6.44,72598.5,-1.61,-10.27,-11.33,0,*5D
1513080261.95,57927,6.5,72620.3,-1.61,-10.35,-11.33,0,*5F
1513080263.19,57928,6.44,72588.3,-1.61,-10.35,-11.23,0,*51
1513080264.43,57929,6.44,72612.0,-1.61,-10.23,-11.23,0,*57
1513080265.69,57930,6.44,72498.8,-1.61,-10.27,-11.33,0,*5A
1513080266.97,57931,6.44,72540.0,-1.61,-10.41,-11.33,0,*5B
1513080268.23,57932,6.44,72514.5,-1.61,-10.41,-11.45,0,*59
1513080269.49,57933,6.44,72580.0,-1.61,-10.53,-11.51,0,*5E
1513080270.74,57934,6.44,72580.3,-1.61,-10.53,-11.37,0,*59
1513080272.02,57935,6.44,72524.3,-1.61,-10.41,-11.37,0,*5B
1513080273.28,57936,6.5,72564.0,-1.63,-10.41,-11.33,0,*5E
1513080274.54,57937,6.44,72586.0,-1.61,-10.35,-11.33,0,*5E
1513080275.78,57938,6.5,72548.0,-1.61,-10.23,-11.23,0,*57
1513080277.03,57939,6.44,72558.8,-1.61,-10.27,-11.33,0,*53
1513080278.27,57940,6.5,72582.5,-1.61,-10.35,-11.23,0,*5F
1513080279.51,57941,6.5,72588.0,-1.61,-10.35,-11.23,0,*5E
1513080280.77,57942,6.44,72590.0,-1.63,-10.41,-11.37,0,*59
1513080281.98,57943,6.44,72574.5,-1.59,-10.45,-11.41,0,*54
1513080283.27,57944,6.44,72568.3,-1.61,-10.41,-11.33,0,*59
1513080284.51,57945,6.44,72590.3,-1.61,-10.35,-11.23,0,*5A
1513080285.74,57946,6.5,72600.8,-1.61,-10.23,-11.19,0,*57
1513080286.98,57947,6.44,72588.0,-1.61,-10.23,-11.19,0,*56
1513080288.21,57948,6.44,72592.8,-1.61,-10.23,-11.11,0,*51
1513080289.44,57949,6.44,72598.3,-1.61,-10.23,-11.11,0,*50
1513080290.68,57950,6.44,72576.3,-1.61,-10.15,-11.11,0,*5D
1513080291.92,57951,6.5,72586.0,-1.61,-10.15,-11.11,0,*5C
1513080293.19,57952,6.44,72590.5,-1.61,-10.15,-11.07,0,*58
1513080294.46,57953,6.44,72580.0,-1.61,-10.15,-11.07,0,*59
1513080295.7,57954,6.44,72578.5,-1.61,-10.15,-10.97,0,*56
1513080296.94,57955,6.44,72606.3,-1.61,-10.23,-10.93,0,*56
1513080298.2,57956,6.44,72604.0,-1.61,-10.09,-10.79,0,*59
1513080299.45,57957,6.44,72524.8,-1.61,-10.09,-10.79,0,*58
1513080300.68,57958,6.44,72508.5,-1.61,-10.01,-10.85,0,*5C
1513080301.94,57959,6.44,72540.8,-1.61,-10.09,-10.79,0,*56
1513080303.17,57960,6.44,72550.0,-1.63,-10.01,-10.79,0,*56
1513080304.4,57961,6.5,72564.8,-1.61,-10.09,-10.85,0,*5E
1513080305.65,57962,6.44,72582.0,-1.61,-10.09,-10.79,0,*5E
1513080306.86,57963,6.44,72578.5,-1.59,-10.05,-10.93,0,*5C
1513080308.06,57964,6.44,72580.8,-1.55,-10.09,-10.89,0,*50
1513080309.3,57965,6.44,72582.3,-1.59,-10.05,-10.79,0,*5E
1513080310.53,57966,6.44,72586.3,-1.59,-9.97,-10.79,0,*6E
1513080311.77,57967,6.44,72552.0,-1.61,-10.15,-10.97,0,*56
1513080312.98,57968,6.44,72558.0,-1.63,-10.27,-11.19,0,*5D
1513080314.22,57969,6.44,72560.5,-1.61,-10.27,-11.11,0,*56
1513080315.45,57970,6.44,72566.5,-1.61,-10.27,-11.19,0,*56
1513080316.69,57971,6.44,72582.5,-1.61,-10.27,-11.11,0,*5F
1513080317.92,57972,6.44,72584.5,-1.63,-10.35,-11.33,0,*5D
1513080319.13,57973,6.5,72594.8,-1.63,-10.23,-11.23,0,*5A
1513080320.39,57974,6.5,72598.0,-1.61,-10.27,-11.37,0,*5E
1513080321.62,57975,6.44,72614.8,-1.61,-10.23,-11.19,0,*57
1513080322.83,57976,6.5,72630.5,-1.63,-10.23,-11.11,0,*5E
1513080324.06,57977,6.44,72602.8,-1.63,-10.27,-11.33,0,*5B
1513080325.32,57978,6.44,72626.8,-1.61,-10.35,-11.33,0,*55
1513080326.56,57979,6.44,72612.0,-1.63,-10.41,-11.23,0,*54
1513080327.79,57980,6.44,72590.8,-1.61,-10.53,-11.45,0,*53
1513080329.05,57981,6.44,72606.5,-1.61,-10.35,-11.33,0,*53
1513080330.28,57982,6.44,72582.3,-1.63,-10.35,-11.33,0,*52
1513080331.52,57983,6.44,72584.8,-1.61,-10.49,-11.45,0,*5B
1513080332.8,57984,6.5,72572.3,-1.61,-10.41,-11.37,0,*51
1513080334.04,57985,6.44,72588.3,-1.63,-10.35,-11.33,0,*55
1513080335.31,57986,6.44,72574.0,-1.63,-10.63,-11.63,0,*50
1513080336.6,57987,6.44,72600.3,-1.61,-10.67,-11.89,0,*53
1513080337.84,57988,6.44,72546.5,-1.63,-10.53,-11.63,0,*5D
1513080339.07,57989,6.44,72514.5,-1.63,-10.49,-11.59,0,*5E
1513080340.31,57990,6.44,72530.0,-1.63,-10.35,-11.37,0,*55
1513080341.54,57991,6.44,72530.0,-1.61,-10.23,-11.23,0,*54
1513080342.76,57992,6.44,72568.0,-1.63,-10.15,-11.23,0,*50
1513080343.95,57993,6.5,72570.3,-1.63,-9.97,-11.11,0,*62
1513080345.15,57994,6.44,72548.3,-1.63,-9.93,-11.11,0,*61
1513080346.37,57995,6.44,72598.8,-1.63,-9.71,-10.97,0,*63
1513080347.57,57996,6.44,72582.5,-1.63,-9.67,-10.85,0,*64
1513080348.84,57997,6.5,72578.5,-1.61,-9.57,-10.63,0,*6C
1513080350.11,57998,6.44,72582.0,-1.63,-9.41,-10.75,0,*61
1513080351.33,57999,6.44,72586.3,-1.63,-9.45,-10.85,0,*6B
1513080352.56,58000,6.44,72528.8,-1.63,-9.53,-10.93,0,*6D
1513080353.8,58001,6.44,72410.0,-1.63,-9.71,-11.07,0,*60
1513080355.03,58002,6.44,72474.3,-1.63,-10.15,-11.33,0,*5E
1513080356.24,58003,6.44,72470.3,-1.63,-10.23,-11.23,0,*5B
1513080357.48,58004,6.44,72466.5,-1.63,-10.35,-11.37,0,*5E
1513080358.71,58005,6.44,72518.8,-1.61,-10.49,-11.45,0,*53
1513080359.98,58006,6.44,72550.5,-1.61,-10.63,-11.45,0,*58
1513080361.19,58007,6.44,72548.8,-1.63,-10.49,-11.45,0,*53
1513080362.44,58008,6.44,72576.0,-1.61,-10.49,-11.37,0,*5B
1513080363.7,58009,6.44,72548.5,-1.63,-10.41,-11.33,0,*54
1513080364.96,58010,6.44,72570.0,-1.63,-10.41,-11.33,0,*5C
1513080366.17,58011,6.44,72572.0,-1.63,-10.27,-11.23,0,*5C
1513080367.38,58012,6.44,72584.3,-1.63,-10.35,-11.23,0,*5C
1513080368.62,58013,6.44,72596.0,-1.61,-10.27,-11.11,0,*5D
1513080369.87,58014,6.44,72600.5,-1.65,-10.41,-11.23,0,*5F
1513080371.11,58015,6.44,72606.0,-1.65,-10.31,-11.23,0,*59
1513080372.34,58016,6.44,72616.8,-1.63,-10.23,-11.07,0,*59
1513080373.58,58017,6.44,72608.8,-1.63,-10.23,-11.07,0,*58
1513080374.79,58018,6.5,72596.8,-1.63,-10.23,-11.19,0,*58
1513080376.02,58019,6.44,72580.5,-1.63,-10.49,-11.33,0,*5D
1513080377.23,58020,6.44,72584.0,-1.63,-10.53,-11.23,0,*5D
1513080378.43,58021,6.5,72570.0,-1.63,-10.53,-11.45,0,*5C
1513080379.72,58022,6.44,72580.0,-1.61,-10.63,-11.51,0,*5B
1513080380.98,58023,6.5,72596.0,-1.61,-10.63,-11.45,0,*5F
1513080382.25,58024,6.5,72626.8,-1.63,-10.63,-11.51,0,*5F
1513080383.48,58025,6.44,72614.0,-1.65,-10.53,-11.41,0,*5A
1513080384.73,58026,6.44,72418.8,-1.65,-10.57,-11.51,0,*5C
1513080386.02,58027,6.44,72462.0,-1.65,-10.71,-11.67,0,*5C
1513080387.31,58028,6.44,72518.3,-1.65,-10.71,-11.67,0,*53
1513080388.6,58029,6.44,72504.5,-1.65,-10.67,-11.55,0,*54
1513080389.88,58030,6.44,72562.3,-1.65,-10.79,-11.73,0,*57
1513080391.14,58031,6.5,72588.0,-1.65,-10.89,-11.85,0,*50
1513080392.39,58032,6.44,72600.3,-1.65,-10.89,-11.77,0,*5E
1513080393.65,58033,6.44,72616.3,-1.65,-10.85,-11.63,0,*56
1513080394.94,58034,6.44,72632.3,-1.65,-10.71,-11.63,0,*5A
1513080396.23,58035,6.44,72616.3,-1.65,-10.67,-11.55,0,*59
1513080397.5,58036,6.44,72592.5,-1.67,-10.75,-11.55,0,*5B
1513080398.76,58037,6.5,72606.8,-1.65,-10.67,-11.41,0,*5E
1513080400.0,58038,6.44,72610.5,-1.65,-10.57,-11.41,0,*52
1513080401.26,58039,6.44,72610.0,-1.65,-10.57,-11.37,0,*52
1513080402.48,58040,6.44,72598.0,-1.63,-10.53,-11.37,0,*5E
1513080403.74,58041,6.44,72586.0,-1.63,-10.63,-11.37,0,*5C
1513080405.01,58042,6.44,72580.8,-1.63,-10.67,-11.51,0,*5B
1513080406.24,58043,6.44,72590.5,-1.63,-10.49,-11.37,0,*56
1513080407.48,58044,6.44,72578.0,-1.63,-10.41,-11.23,0,*5C
1513080408.69,58045,6.44,72586.5,-1.63,-10.27,-11.19,0,*54
1513080409.92,58046,6.5,72622.5,-1.63,-10.41,-11.23,0,*5E
1513080411.21,58047,6.44,72594.0,-1.61,-10.63,-11.37,0,*58
1513080412.48,58048,6.44,72586.8,-1.63,-10.75,-11.63,0,*53
1513080413.76,58049,6.44,72550.0,-1.65,-10.79,-11.63,0,*58
1513080415.03,58050,6.44,72572.5,-1.65,-10.67,-11.41,0,*5F
1513080416.26,58051,6.44,72544.0,-1.65,-10.53,-11.41,0,*59
1513080417.49,58052,6.44,72590.8,-1.63,-10.53,-11.51,0,*5D
1513080418.73,58053,6.44,72586.8,-1.63,-10.63,-11.45,0,*5A
1513080419.99,58054,6.44,72618.8,-1.63,-10.67,-11.51,0,*5C
1513080421.22,58055,6.44,72626.5,-1.63,-10.53,-11.37,0,*5A
1513080422.48,58056,6.44,72640.3,-1.65,-10.31,-11.29,0,*54
1513080423.73,58057,6.44,72580.3,-1.65,-10.53,-11.51,0,*5E
1513080425.02,58058,6.44,72602.8,-1.65,-10.67,-11.55,0,*52
1513080426.28,58059,6.44,72574.8,-1.65,-10.85,-11.77,0,*5F
1513080427.56,58060,6.44,72572.3,-1.65,-10.79,-11.55,0,*56
1513080428.79,58061,6.44,72564.0,-1.67,-10.89,-11.81,0,*53
1513080430.08,58062,6.44,72590.5,-1.65,-10.79,-11.67,0,*55
1513080431.36,58063,6.44,72594.3,-1.65,-10.79,-11.51,0,*51
1513080432.62,58064,6.5,72578.8,-1.65,-10.89,-11.67,0,*5C
1513080433.88,58065,6.5,72600.5,-1.65,-10.85,-11.63,0,*55
1513080435.14,58066,6.44,72610.8,-1.65,-10.97,-11.77,0,*50
1513080436.39,58067,6.44,72598.8,-1.65,-10.89,-11.77,0,*5E
1513080437.65,58068,6.5,72620.8,-1.65,-10.97,-11.77,0,*5E
1513080438.91,58069,6.44,72632.0,-1.65,-10.85,-11.67,0,*5D
1513080440.19,58070,6.44,72598.3,-1.65,-10.79,-11.55,0,*57
1513080441.43,58071,6.44,72574.0,-1.67,-10.85,-11.73,0,*53
1513080442.69,58072,6.5,72574.5,-1.65,-10.85,-11.63,0,*53
1513080443.98,58073,6.5,72598.0,-1.65,-10.79,-11.63,0,*51
1513080445.21,58074,6.44,72606.8,-1.67,-10.85,-11.67,0,*53
1513080446.46,58075,6.5,72626.8,-1.65,-10.89,-11.77,0,*5D
1513080447.72,58076,6.5,72632.0,-1.65,-10.85,-11.77,0,*52
1513080448.95,58077,6.44,72634.8,-1.67,-11.01,-11.81,0,*55
1513080450.21,58078,6.44,72640.3,-1.65,-10.89,-11.77,0,*50
1513080451.45,58079,6.44,72658.3,-1.67,-10.93,-11.67,0,*59
1513080452.74,58080,6.5,72604.5,-1.65,-10.67,-11.55,0,*57
1513080453.97,58081,6.44,72568.0,-1.65,-10.57,-11.41,0,*50
1513080455.26,58082,6.44,72586.3,-1.65,-10.67,-11.51,0,*51
1513080456.52,58083,6.44,72586.8,-1.65,-10.71,-11.41,0,*56
1513080457.81,58084,6.44,72610.3,-1.65,-10.71,-11.55,0,*54
1513080459.04,58085,6.44,72546.0,-1.65,-10.53,-11.23,0,*54
1513080460.27,58086,6.5,72498.8,-1.65,-10.45,-11.15,0,*55
1513080461.53,58087,6.44,72558.5,-1.65,-10.71,-11.41,0,*52
1513080462.79,58088,6.44,72542.5,-1.65,-10.71,-11.41,0,*5D
1513080464.05,58089,6.44,72556.8,-1.63,-10.63,-11.33,0,*5C
1513080465.31,58090,6.44,72536.0,-1.65,-10.57,-11.29,0,*5E
1513080466.55,58091,6.44,72490.0,-1.65,-10.57,-11.41,0,*51
1513080467.83,58092,6.44,72558.3,-1.65,-10.79,-11.55,0,*5B
1513080469.09,58093,6.44,72532.3,-1.65,-10.89,-11.55,0,*55
1513080470.33,58094,6.44,72540.8,-1.67,-10.89,-11.67,0,*51
1513080471.59,58095,6.44,72560.8,-1.65,-10.85,-11.55,0,*5F
1513080472.85,58096,6.44,72570.5,-1.65,-10.97,-11.63,0,*5A
1513080474.11,58097,6.44,72566.8,-1.65,-10.89,-11.67,0,*50
1513080475.37,58098,6.44,72562.3,-1.65,-10.85,-11.55,0,*52
1513080476.63,58099,6.44,72578.0,-1.65,-10.89,-11.63,0,*5A
1513080477.84,58100,6.44,72574.3,-1.67,-10.85,-11.45,0,*51
1513080479.08,58101,6.44,72614.5,-1.65,-10.85,-11.41,0,*56
1513080480.34,58102,6.5,72618.8,-1.65,-10.71,-11.41,0,*5E
1513080481.6,58103,6.44,72586.0,-1.65,-10.71,-11.41,0,*5F
1513080482.89,58104,6.5,72560.3,-1.65,-10.67,-11.29,0,*51
1513080484.16,58105,6.44,72604.3,-1.65,-10.71,-11.41,0,*59
1513080485.42,58106,6.44,72576.3,-1.65,-10.67,-11.41,0,*5D
1513080486.71,58107,6.44,72574.8,-1.65,-10.71,-11.37,0,*5A
1513080487.99,58108,6.44,72532.3,-1.65,-10.71,-11.37,0,*55
1513080489.27,58109,6.44,72542.0,-1.65,-10.71,-11.51,0,*54
1513080490.53,58110,6.44,72570.3,-1.65,-10.85,-11.55,0,*53
1513080491.79,58111,6.44,72558.5,-1.65,-10.85,-11.51,0,*56
1513080493.05,58112,6.44,72560.0,-1.63,-10.75,-11.51,0,*5C
1513080494.28,58113,6.44,72586.5,-1.63,-10.93,-11.59,0,*5D
1513080495.55,58114,6.44,72604.8,-1.61,-10.93,-11.63,0,*51
1513080496.82,58115,6.44,72612.5,-1.65,-11.01,-11.67,0,*5A
1513080498.1,58116,6.44,72630.8,-1.65,-10.79,-11.51,0,*52
1513080499.38,58117,6.5,72588.8,-1.65,-10.67,-11.37,0,*5C
1513080500.64,58118,6.44,72586.8,-1.65,-10.57,-11.29,0,*5F
1513080501.87,58119,6.44,72548.5,-1.65,-10.53,-11.23,0,*50
1513080503.07,58120,6.5,72578.8,-1.63,-10.53,-11.19,0,*55
1513080504.28,58121,6.44,72588.5,-1.63,-10.49,-11.23,0,*56
1513080505.49,58122,6.44,72592.8,-1.63,-10.49,-11.11,0,*54